Theta_e
327 328 328 328 327 328 332 327 322 325 330 328 317 316 319 314 318 330 336 339 343 346 350 352 353 352 350 353 354 353 356 357 357 357 357 359 362 363 362 362 364 361 357 355 355 355 354 354 352 350 352 351 352 354 354 355 356 356 358 360 360 358 357
324 325 326 328 327 330 328 321 322 327 329 329 320 318 320 316 321 334 337 337 338 342 347 350 352 352 352 353 353 352 352 353 355 354 354 356 359 362 362 362 362 361 357 355 356 355 355 355 353 351 351 352 354 355 354 355 357 356 356 359 361 361 359
323 323 323 324 326 330 326 320 325 326 321 322 321 318 318 320 329 340 342 341 341 340 343 346 347 350 351 349 349 349 348 350 354 353 352 355 357 358 359 359 359 359 358 358 357 355 354 352 352 353 352 352 354 358 357 355 356 355 355 357 359 360 360
322 324 322 319 321 327 325 322 324 324 321 320 320 319 318 323 337 346 344 343 346 347 349 350 348 348 348 348 347 347 347 347 350 351 351 355 357 356 355 355 355 354 353 356 357 355 353 351 351 352 352 351 352 358 360 358 358 357 356 356 358 359 360
319 319 321 320 319 321 321 319 318 319 321 320 320 320 314 321 339 347 344 344 346 349 353 352 352 349 345 347 348 346 346 345 345 346 346 349 352 353 353 352 350 349 349 352 356 356 355 354 354 353 353 353 351 354 360 361 361 360 359 359 359 360 360
314 316 322 322 322 323 320 319 318 318 320 317 316 320 316 320 334 339 341 345 344 347 350 350 350 349 344 345 346 345 345 344 343 344 343 345 347 349 350 349 347 347 347 349 352 356 356 356 356 355 354 354 354 353 356 360 362 363 362 361 360 361 361
317 319 322 320 320 323 321 321 322 321 322 317 313 318 324 330 334 333 336 343 346 350 352 349 347 345 343 344 344 344 344 343 342 342 342 344 344 344 345 345 345 345 345 345 347 350 352 354 355 355 354 354 353 351 352 355 357 358 360 361 360 359 360
323 321 322 323 322 321 321 322 322 321 321 320 319 322 330 336 337 336 340 345 349 352 351 347 344 342 341 342 343 343 343 341 341 341 341 342 341 341 341 341 343 342 342 343 344 345 347 348 350 352 353 351 350 350 349 349 350 351 354 357 356 357 357
322 321 322 326 325 320 320 321 322 324 322 322 326 325 331 338 335 336 343 346 347 347 346 344 342 343 342 342 341 341 341 341 339 339 339 340 340 341 340 340 340 340 340 341 342 343 344 345 346 348 349 350 350 350 351 350 350 350 351 350 352 354 354
320 320 321 323 322 320 320 320 321 323 321 323 324 323 330 339 338 335 340 344 345 344 343 342 341 342 343 341 340 340 339 340 339 338 338 338 339 340 339 339 339 338 339 340 341 342 343 344 345 345 346 348 348 349 351 352 352 352 353 351 351 353 353
321 323 326 327 323 318 316 317 319 321 322 323 325 326 330 339 341 338 339 342 342 341 341 341 339 339 340 339 340 340 340 340 339 337 337 337 337 338 338 339 338 338 338 339 340 341 342 344 344 343 344 345 345 347 349 351 352 353 355 353 351 351 353
322 324 324 322 320 317 314 315 317 320 322 322 322 324 330 339 343 342 342 340 338 338 340 340 338 337 338 337 337 338 339 339 338 337 337 337 336 337 337 337 338 338 337 337 338 339 342 343 343 342 342 342 343 344 345 347 349 351 352 353 352 351 353
322 323 320 319 319 318 317 317 318 318 320 321 318 320 329 339 342 343 345 341 337 338 339 338 337 337 337 336 336 336 336 337 337 337 337 336 335 335 336 336 337 337 337 337 337 337 339 341 341 342 342 342 342 343 344 346 348 350 351 353 353 352 352
320 320 321 321 318 317 317 317 318 318 318 319 318 320 332 343 343 343 345 344 341 339 338 338 337 336 335 335 336 335 334 335 335 335 335 334 334 333 333 334 334 335 335 337 337 337 337 339 340 341 342 343 343 343 344 345 347 348 349 351 353 353 353
319 318 320 319 317 318 316 315 318 318 317 317 317 324 338 345 343 343 344 344 343 341 338 337 337 336 335 335 336 337 336 335 334 334 333 333 333 332 332 332 332 333 334 335 335 335 335 336 337 339 341 342 342 343 344 344 344 344 344 346 347 348 348
318 318 318 318 317 317 314 314 317 316 316 318 316 324 339 343 341 342 342 341 341 339 336 336 337 336 336 335 335 337 336 335 335 334 333 334 333 332 331 332 332 332 331 332 334 333 333 333 334 335 337 338 341 343 343 343 343 342 341 343 343 343 343
319 317 317 316 315 315 314 315 317 316 318 318 314 322 338 343 340 341 341 340 340 338 336 336 336 336 335 334 333 334 335 334 333 332 331 331 332 331 330 330 331 330 330 330 332 332 331 332 332 332 333 334 337 340 340 338 339 339 339 341 342 342 342
321 319 318 318 316 315 317 320 320 320 319 316 317 326 338 341 339 339 340 339 338 337 336 336 336 335 334 334 332 333 334 332 331 330 329 329 331 331 329 329 329 327 327 328 330 330 330 331 331 331 332 331 332 336 337 335 335 337 337 338 339 340 341
322 321 319 319 317 317 321 323 324 323 321 320 327 333 338 339 338 339 338 337 336 337 336 335 335 333 332 333 332 332 332 331 329 328 329 329 330 330 330 330 328 325 325 326 328 329 327 328 330 331 332 331 330 332 334 334 334 334 335 336 336 337 339
322 321 319 319 321 322 324 325 325 326 327 329 332 336 338 339 338 337 336 336 337 337 335 333 333 331 331 333 333 331 331 330 327 326 326 326 327 328 328 328 326 324 324 326 327 326 323 325 329 331 332 332 331 331 333 334 333 333 333 333 334 335 336
322 319 318 321 324 323 323 327 328 326 328 330 333 335 338 339 337 336 336 336 337 336 333 331 330 329 330 333 333 328 327 327 325 324 323 324 325 325 325 324 324 324 324 325 325 324 323 325 329 330 331 331 331 332 332 333 333 332 332 333 332 332 334
322 319 319 322 324 323 324 329 329 324 324 329 333 334 335 336 336 335 335 335 334 334 333 330 330 329 331 334 333 328 325 324 323 322 322 321 322 323 322 322 323 323 323 324 324 324 324 326 327 326 327 328 330 331 332 333 333 332 332 333 331 331 332
323 321 320 319 321 325 329 331 329 324 322 325 330 333 334 336 336 335 334 333 332 333 332 331 330 332 334 335 333 327 325 324 322 322 322 321 321 321 320 321 323 323 323 323 324 324 325 326 326 326 326 327 327 329 331 333 333 333 333 333 332 331 332
325 324 320 318 321 327 329 327 325 324 324 325 327 329 332 335 335 334 333 332 332 333 333 333 334 336 336 334 330 325 323 323 322 321 322 321 321 321 321 322 322 322 323 323 323 324 325 326 326 326 327 328 328 328 330 332 333 333 333 333 332 331 332
324 323 320 319 324 328 327 326 324 322 323 325 325 327 332 334 334 333 332 332 332 331 331 331 333 333 331 328 325 322 321 322 322 321 321 321 321 321 322 322 321 321 322 322 322 322 323 324 325 325 327 328 328 328 329 330 331 332 332 332 332 332 332
320 321 320 323 328 327 324 324 323 322 325 325 326 332 334 331 330 331 329 329 328 327 327 327 328 327 324 323 323 322 322 322 322 321 321 321 321 321 321 321 321 321 321 320 321 322 322 323 323 324 325 326 326 327 328 328 327 329 330 331 331 332 331
319 318 319 325 330 328 323 323 324 328 332 331 330 332 329 325 325 325 324 325 325 325 325 324 323 323 323 322 322 322 322 322 321 321 321 320 320 320 320 320 320 320 319 319 320 321 321 321 321 322 323 324 324 325 327 326 326 327 327 328 330 331 330
323 321 321 325 329 329 327 328 330 332 334 334 333 329 325 323 324 324 324 325 325 324 324 322 321 321 321 322 323 322 321 320 320 320 320 319 319 319 319 319 319 318 318 319 319 320 320 320 320 321 321 322 323 324 325 325 326 327 326 326 329 331 330
329 328 327 328 329 327 326 329 330 330 330 332 333 329 326 325 324 324 324 324 323 323 323 321 320 321 321 322 322 320 320 320 319 319 319 318 318 319 318 318 318 318 318 318 318 319 320 319 320 321 321 321 322 323 323 323 325 325 326 326 327 329 329
332 330 327 326 326 326 325 325 326 327 327 329 330 329 327 326 325 325 324 323 323 324 324 323 322 320 320 320 320 320 320 319 318 318 318 317 317 317 317 317 317 317 317 318 318 319 319 319 319 320 320 320 321 322 322 323 323 324 325 325 326 327 328
330 329 329 328 326 325 324 324 323 323 325 327 327 327 326 325 325 326 324 323 323 323 324 325 323 320 319 320 320 321 322 319 317 317 317 317 316 316 316 316 317 317 317 317 318 318 319 319 319 319 320 320 320 320 321 322 323 323 324 325 326 326 326
327 329 331 330 327 325 323 323 322 321 323 325 325 324 324 324 323 324 323 322 321 321 323 325 323 320 320 321 321 322 321 319 317 317 316 316 315 315 316 316 316 317 318 318 318 318 318 318 319 319 320 321 321 321 321 321 322 323 323 324 325 325 325
328 331 331 330 330 330 326 323 323 321 322 324 324 323 322 322 322 322 321 320 319 320 321 323 323 322 322 321 320 321 320 318 316 316 315 315 315 315 315 316 316 316 317 317 317 318 318 318 318 318 318 320 322 323 323 322 322 322 323 324 325 325 325
330 330 330 330 331 332 329 326 325 323 322 324 324 322 322 322 322 322 321 319 318 319 318 319 321 323 322 319 317 318 318 316 315 315 314 314 315 315 315 315 316 316 317 317 317 317 317 317 317 317 318 320 322 323 324 323 323 323 324 324 324 325 326
329 326 326 328 330 331 330 328 326 323 322 323 323 322 322 321 321 321 321 319 319 320 318 316 317 321 321 317 315 316 316 314 314 314 313 314 314 314 314 315 316 317 317 316 316 316 317 317 316 316 318 320 321 321 322 322 323 324 325 325 325 326 327
327 325 326 327 327 328 329 328 326 324 322 322 323 322 322 321 319 319 320 320 319 320 320 317 315 317 317 315 315 315 315 314 313 313 313 313 313 314 314 316 316 316 316 316 316 316 316 316 315 315 317 318 319 319 320 320 321 323 324 325 325 326 326
328 328 326 324 324 327 327 326 326 325 322 322 323 323 321 320 317 317 319 319 317 317 318 317 315 314 314 314 314 314 313 313 312 312 312 313 313 314 315 315 315 315 315 315 315 315 316 316 314 314 316 317 317 316 317 317 318 320 322 323 324 324 325
Wind_Speed
5 6 5 5 5 2 3 3 3 5 6 4 2 4 5 5 3 1 2 7 6 5 7 4 3 9 10 8 9 11 10 10 9 7 5 4 3 2 3 5 4 7 9 8 7 10 10 11 16 16 17 27 32 33 33 32 30 29 26 26 26 26 26
5 2 4 6 7 3 3 3 3 4 3 1 2 1 2 2 4 2 5 10 9 5 5 4 6 10 11 9 10 12 12 10 7 6 5 4 4 4 3 5 5 5 7 8 8 9 9 8 11 13 12 18 26 31 33 32 30 30 28 26 26 26 25
4 2 3 5 7 6 2 0 2 1 1 1 1 1 2 2 5 3 3 3 2 2 3 8 12 13 12 11 13 13 13 10 6 6 6 4 4 4 4 5 4 5 5 5 7 8 9 9 9 11 10 12 18 25 30 31 31 31 30 27 26 25 25
2 1 1 2 5 5 1 4 5 1 3 1 1 2 3 3 5 4 2 2 3 2 1 3 9 13 12 12 12 11 11 11 8 6 6 3 3 3 3 5 5 6 8 7 4 7 9 11 12 11 10 11 14 19 26 29 29 29 29 27 25 25 26
1 1 1 2 3 2 2 2 4 3 1 0 1 3 3 4 5 5 5 1 2 1 0 0 5 10 11 11 12 10 10 10 9 8 7 5 3 1 3 6 7 7 11 12 5 4 5 7 10 10 10 11 14 17 23 27 26 26 28 27 26 25 26
2 3 3 4 6 4 1 3 4 4 3 2 2 4 3 2 5 6 7 5 1 1 3 4 4 8 10 12 12 10 9 10 9 9 8 6 5 5 5 7 7 8 12 15 13 9 5 4 6 10 12 10 10 12 17 22 24 25 28 29 27 24 24
3 7 8 9 11 6 3 1 3 4 4 3 3 3 1 3 5 6 6 6 3 2 3 5 6 9 11 11 12 11 10 10 9 8 8 7 8 9 9 8 9 10 13 15 17 18 13 9 7 2 6 4 2 3 0 4 8 13 20 26 27 23 21
4 5 8 7 5 1 3 3 4 5 4 2 2 4 4 3 4 5 5 4 2 0 1 4 8 12 13 12 12 12 10 9 9 8 8 8 9 9 10 9 9 11 14 15 17 19 18 18 18 15 13 13 13 10 4 5 6 1 8 18 24 24 23
5 4 2 2 3 4 2 3 6 7 2 3 2 2 4 4 5 7 6 4 2 4 7 5 7 11 12 14 14 12 10 9 9 9 8 8 8 8 9 9 9 11 12 13 15 17 18 19 20 20 21 21 19 15 8 4 5 5 1 5 12 18 20
2 2 1 1 3 3 2 4 9 9 2 7 4 2 5 4 4 6 7 6 3 8 12 9 8 9 11 14 15 11 10 10 9 9 8 7 7 7 8 8 8 9 10 11 13 15 17 19 19 20 22 24 22 18 13 10 11 11 7 2 1 3 7
2 2 3 2 4 2 1 7 10 6 5 8 4 4 4 4 5 4 8 13 10 9 11 12 11 11 11 13 14 12 10 10 9 10 9 8 8 7 8 7 7 8 9 11 13 14 15 17 19 20 22 24 24 21 19 17 14 14 13 11 8 6 4
3 5 4 7 7 3 5 11 10 2 7 8 6 5 5 7 7 4 6 15 15 11 12 13 12 11 10 11 12 11 11 10 10 10 11 11 11 9 8 7 7 7 8 9 12 14 14 16 19 20 21 21 22 21 20 20 18 15 15 19 19 15 12
4 6 6 6 7 5 8 12 9 5 6 6 3 2 4 6 6 7 9 13 13 10 11 13 12 11 11 10 10 10 12 11 10 11 13 13 12 11 9 8 7 7 7 8 12 14 15 17 19 19 19 19 19 19 17 18 19 16 15 19 23 22 19
7 8 6 3 7 7 7 8 6 6 9 6 3 3 7 10 10 13 14 12 10 9 10 12 11 10 10 10 9 10 12 11 10 11 12 12 12 12 11 10 9 8 8 9 12 14 15 16 18 17 16 17 18 18 16 17 19 19 17 19 23 24 22
7 9 4 3 6 5 5 7 6 7 7 7 6 5 11 13 11 13 15 13 9 6 8 10 9 10 11 10 9 10 10 11 11 12 12 11 11 11 10 10 9 9 10 10 12 15 15 15 15 15 13 14 16 19 20 21 21 20 19 21 23 25 25
3 7 7 4 4 5 4 6 6 4 2 3 5 3 9 13 13 13 13 11 7 6 9 11 10 11 12 11 9 8 9 11 12 11 11 11 10 10 9 9 8 8 9 11 11 14 16 16 16 16 14 14 15 19 22 23 22 21 21 21 23 25 25
2 5 8 7 4 3 4 3 4 5 1 1 5 2 11 16 15 13 9 7 7 8 10 11 10 11 12 10 9 9 9 11 12 11 11 10 9 9 9 8 7 7 8 11 13 15 17 17 18 18 18 19 19 21 25 25 23 22 22 21 22 24 24
3 4 7 8 3 3 2 1 3 6 3 2 2 3 12 14 10 9 9 9 11 10 9 10 10 10 11 10 9 9 9 9 10 11 10 10 9 9 9 8 7 8 10 12 14 17 18 17 18 19 20 22 21 21 25 26 25 23 22 22 22 22 22
3 5 6 4 3 3 2 5 7 8 3 5 10 11 11 13 13 14 13 12 11 9 7 8 10 11 11 9 9 9 8 9 10 11 10 10 10 9 8 7 7 8 10 12 13 17 18 16 17 19 20 22 22 21 22 24 24 23 22 23 22 20 19
1 3 1 0 3 2 5 6 6 8 6 10 14 12 9 11 14 15 14 12 10 9 9 8 9 11 10 7 7 7 6 6 10 11 9 9 9 9 9 9 9 9 11 12 14 18 18 17 17 18 20 21 22 22 21 22 23 22 23 23 20 18 16
2 2 2 1 2 3 3 3 2 3 6 8 9 7 6 8 10 12 13 13 10 9 10 10 9 10 9 6 4 5 7 7 9 12 12 11 11 12 14 14 12 11 11 13 17 19 19 21 21 20 20 20 20 20 20 20 20 20 21 21 20 18 16
2 1 2 0 1 1 2 3 2 2 5 9 10 8 5 5 8 10 11 12 12 11 11 11 10 9 8 5 3 5 7 8 10 12 14 15 16 17 17 14 12 11 13 14 18 19 20 22 22 21 20 19 18 19 18 17 18 18 19 18 18 18 16
2 1 2 1 1 3 3 3 4 5 6 9 10 7 1 4 7 9 9 11 13 13 11 11 10 7 6 4 4 5 7 8 10 11 12 15 17 18 16 13 12 14 15 16 19 21 21 21 21 20 18 17 17 17 16 15 16 16 17 16 15 16 16
3 2 2 1 1 2 1 5 7 7 6 7 8 4 3 6 8 9 8 10 13 12 10 8 7 5 5 5 5 6 7 11 14 14 12 14 16 16 16 15 15 17 18 19 20 21 21 20 19 17 16 16 16 15 15 14 14 14 14 13 13 14 14
3 4 3 1 1 1 2 6 6 6 6 6 5 4 6 6 9 8 7 8 10 12 10 6 4 4 5 6 7 8 9 11 13 15 16 16 16 15 16 17 17 17 18 19 19 19 19 18 17 16 15 15 15 15 15 15 14 13 11 10 10 11 12
3 3 2 1 1 2 2 7 7 5 5 3 2 4 2 4 8 9 9 8 7 10 10 7 6 6 7 8 9 10 10 9 10 14 17 17 16 16 17 18 17 16 17 17 16 16 16 16 17 16 16 16 15 15 15 15 15 13 11 9 8 8 10
2 2 1 2 0 3 2 7 5 4 2 4 3 4 5 8 11 11 11 9 8 9 10 9 9 8 8 9 9 9 10 10 12 15 16 16 16 15 17 18 16 15 16 15 14 14 14 14 15 15 15 15 14 14 13 13 13 12 11 12 9 5 7
1 1 1 1 2 3 5 6 4 2 2 2 1 4 7 8 9 9 8 8 8 9 10 10 10 9 9 9 8 9 10 10 12 14 16 17 16 15 16 17 14 13 15 14 12 13 13 13 13 13 13 13 13 13 13 13 13 12 13 15 12 6 5
1 1 2 2 1 4 7 7 5 5 5 4 5 6 7 7 7 6 7 8 9 10 10 10 8 8 8 8 8 9 10 9 11 14 15 15 14 14 15 14 11 10 11 10 11 12 13 14 15 15 14 14 13 13 13 14 14 13 14 15 14 11 7
1 1 2 1 4 7 7 7 6 6 6 6 6 7 7 6 6 6 7 8 8 8 9 8 7 7 8 8 8 9 9 9 11 14 14 13 13 13 13 11 8 7 6 7 10 11 12 13 14 15 15 15 15 14 14 13 12 13 14 13 13 13 11
2 1 2 1 2 7 9 7 6 6 6 7 7 7 7 7 7 8 8 8 8 8 8 7 7 8 8 9 8 8 8 8 10 13 13 13 13 12 9 7 5 3 3 6 8 9 10 12 14 14 15 15 15 15 14 12 11 11 11 12 12 13 13
2 1 1 5 5 2 7 8 6 6 6 7 8 8 8 8 8 8 9 8 7 7 6 7 7 8 8 9 8 7 7 8 10 11 12 13 12 8 5 3 3 4 6 8 9 9 10 13 14 15 15 15 15 14 13 13 12 10 10 11 12 12 14
2 2 4 8 9 5 0 4 6 7 7 8 9 8 8 9 8 7 8 7 7 7 6 6 7 8 8 8 8 7 7 7 9 12 12 11 8 5 3 3 4 5 7 9 10 10 12 13 14 15 16 16 17 17 15 13 12 10 10 11 12 13 14
0 1 3 5 3 3 4 3 4 8 8 9 10 8 8 8 7 6 7 7 8 10 10 9 8 7 7 8 9 8 6 6 9 12 11 8 6 6 6 5 4 5 7 10 11 12 12 13 14 15 16 16 16 18 18 16 13 11 10 10 11 13 13
2 2 2 2 0 3 5 5 1 8 9 8 9 9 8 8 8 7 7 6 6 8 10 10 8 6 7 11 11 8 7 9 10 10 8 6 6 6 4 2 4 8 10 10 11 11 12 12 12 14 16 16 16 18 19 19 17 15 13 12 11 11 10
1 0 1 1 1 2 4 5 3 4 8 8 8 8 8 9 9 8 7 7 7 6 7 9 10 9 10 14 14 10 10 11 9 8 8 8 6 4 2 4 8 11 10 10 10 10 11 11 11 13 15 16 17 18 18 19 19 17 15 13 12 10 9
2 3 3 1 1 3 4 5 6 2 4 7 7 7 7 10 12 11 9 9 11 10 7 7 11 9 6 8 12 12 11 10 9 8 9 7 4 2 4 8 11 11 10 10 9 9 10 10 10 13 14 15 16 18 18 18 18 18 16 14 13 11 10
Wind_Direction
139 180 223 241 250 238 191 221 248 234 209 168 165 205 198 181 147 78 104 112 113 108 86 72 179 136 116 112 109 103 89 80 79 72 70 65 47 55 100 118 131 130 148 171 167 164 167 170 180 176 163 170 176 177 180 184 185 188 191 193 193 196 198
120 187 249 268 267 257 198 206 265 287 254 181 97 91 246 177 122 127 139 131 134 133 124 184 186 129 111 106 95 90 85 80 84 86 71 43 6 354 52 84 74 87 129 149 148 166 172 167 187 188 170 171 177 180 182 182 185 188 191 194 194 196 199
137 178 231 262 262 257 220 164 314 327 219 257 93 116 238 134 110 111 85 93 126 110 144 175 156 130 113 99 85 80 81 78 77 84 71 32 345 346 50 79 69 58 61 88 120 158 173 172 197 197 181 178 176 180 185 184 187 191 192 194 195 197 199
142 147 150 205 253 263 13 12 321 232 151 179 155 203 226 130 117 137 116 316 289 22 27 166 132 118 108 95 88 81 78 77 70 76 78 53 332 324 46 65 62 53 28 26 104 149 160 175 200 200 193 199 188 181 186 187 189 190 191 193 195 199 201
224 231 164 203 253 279 68 20 297 272 299 286 224 268 244 145 126 139 129 115 289 324 102 91 88 98 99 95 94 86 78 78 71 67 65 49 23 4 71 67 54 41 24 21 52 131 147 166 187 191 194 207 204 192 187 187 188 188 189 192 194 198 202
214 175 170 229 251 260 203 186 229 249 256 227 241 276 273 132 118 140 137 121 142 214 152 141 108 105 104 99 97 92 86 82 71 64 60 46 44 54 67 73 63 44 31 28 38 57 88 140 170 192 201 209 215 204 189 186 189 189 190 192 194 195 198
218 180 182 211 231 252 292 248 242 248 230 209 226 242 285 38 69 107 114 114 136 157 138 150 145 124 114 107 104 99 92 85 75 66 61 53 51 52 53 60 59 50 39 33 37 44 53 57 51 116 180 161 59 25 268 199 186 189 196 198 198 198 197
282 198 185 192 206 284 339 290 266 259 248 233 181 163 135 100 109 111 94 98 122 10 220 184 148 129 123 116 111 109 105 97 88 76 62 56 53 52 52 52 53 51 43 37 38 38 39 41 39 46 67 77 72 68 41 349 17 48 214 207 200 197 195
331 359 31 29 7 357 330 282 273 265 280 49 80 124 84 89 124 118 106 105 131 159 178 171 122 120 124 118 115 116 114 108 100 90 76 66 61 55 54 50 49 52 45 39 41 41 38 39 40 45 52 59 67 79 102 112 79 71 316 238 204 193 191
16 19 14 5 328 301 292 296 277 266 353 61 81 92 58 71 115 117 117 120 143 161 155 138 118 125 126 119 118 117 113 114 111 103 92 83 75 66 61 58 54 55 53 45 44 46 45 43 42 43 45 51 55 55 60 78 96 99 88 51 226 179 176
31 240 225 283 293 262 280 287 270 269 40 54 73 92 90 118 117 114 140 142 153 167 144 132 136 138 126 118 119 119 118 117 113 106 96 82 73 64 59 59 59 60 60 55 50 50 53 53 51 46 45 50 53 48 42 42 54 68 76 84 85 69 80
288 277 324 345 326 7 7 316 298 349 48 43 37 61 126 142 111 98 156 147 149 163 147 135 135 129 115 112 118 123 125 125 123 120 113 101 87 73 61 55 55 63 69 67 62 57 59 64 62 57 54 57 58 56 50 43 38 42 56 71 77 70 60
284 290 311 329 332 17 11 335 325 358 39 60 45 27 124 131 121 136 157 148 140 143 135 129 129 126 121 119 121 122 121 123 124 116 110 105 98 89 78 62 50 55 72 83 77 67 63 68 69 66 64 65 66 65 62 55 52 50 54 66 73 70 61
336 305 271 303 352 9 4 341 353 24 22 29 357 357 88 101 117 132 135 131 125 122 120 122 125 122 117 112 110 108 109 111 108 99 94 92 87 83 79 72 59 45 51 75 82 72 63 64 67 69 74 80 81 81 79 70 61 58 58 62 70 74 69
341 318 305 3 350 333 328 331 359 40 18 347 350 45 98 107 113 121 120 114 110 110 111 112 113 111 108 106 106 106 104 101 94 91 91 88 81 74 68 65 60 45 37 50 73 75 66 59 58 62 74 89 94 94 89 80 71 65 63 62 66 73 73
326 316 321 313 275 274 310 323 325 360 25 332 343 54 117 122 121 119 116 115 121 127 114 108 110 111 106 100 96 96 98 97 92 88 85 86 86 79 67 55 49 44 34 31 50 70 68 58 50 46 48 59 78 88 84 79 76 70 66 65 64 67 72
299 292 296 289 266 275 299 286 290 314 12 20 326 7 121 129 134 132 131 135 134 128 121 120 122 113 104 99 92 90 97 99 97 94 87 85 87 83 76 63 47 38 28 19 34 60 65 57 49 43 39 41 58 80 81 74 72 68 63 64 64 63 66
298 298 311 312 286 229 264 65 24 333 295 202 332 72 120 125 123 115 121 132 131 129 131 129 124 112 105 106 100 97 103 104 102 102 98 93 92 87 80 73 54 39 27 21 36 56 60 56 52 47 41 39 48 70 79 72 66 63 59 59 61 59 58
301 323 347 333 251 216 33 38 19 344 315 119 86 80 105 116 113 113 117 126 129 126 122 117 111 109 108 108 109 113 117 115 112 110 104 100 99 96 90 79 57 40 24 19 42 58 54 49 54 53 48 43 41 52 69 70 62 58 56 55 55 55 55
292 324 2 210 261 301 34 32 4 1 34 82 83 77 88 109 120 127 128 128 119 104 106 111 109 111 110 101 107 113 102 106 115 112 103 100 100 105 107 95 68 41 22 26 56 67 53 40 47 57 57 51 43 44 56 64 59 52 51 50 47 48 48
197 242 220 170 331 327 33 51 355 18 63 90 99 96 101 117 128 132 131 129 119 108 118 124 117 115 109 91 89 85 62 69 100 104 99 97 99 101 100 95 78 50 32 43 63 67 52 43 49 57 57 53 48 44 49 58 57 51 49 45 38 37 37
218 229 260 14 63 249 220 169 172 64 85 112 115 99 96 134 140 137 137 135 134 139 144 137 128 125 117 113 145 124 93 86 93 93 88 86 88 87 83 79 76 61 46 52 63 60 50 48 51 51 50 49 46 42 44 53 57 53 49 43 35 31 30
273 209 244 233 210 256 232 162 108 56 71 105 106 91 119 180 149 144 149 141 136 141 144 137 133 137 139 152 180 154 120 102 88 80 71 69 74 77 72 64 66 64 53 52 58 54 48 48 47 43 43 44 41 36 37 47 56 56 50 43 33 28 27
272 255 248 237 292 292 173 112 91 78 83 92 93 99 217 185 153 152 150 134 129 132 136 135 132 144 160 163 166 152 124 101 93 91 82 68 63 65 62 56 57 57 51 48 50 47 45 46 43 39 39 40 38 33 31 39 49 53 51 42 33 30 26
255 247 247 242 321 285 90 82 77 79 74 70 100 180 212 176 150 144 122 114 128 139 143 141 121 116 122 115 114 113 99 89 92 97 92 80 68 61 62 59 53 49 47 45 42 40 41 41 37 35 37 38 36 30 28 32 32 32 39 38 34 36 30
255 246 246 60 350 277 95 76 50 43 71 96 205 245 244 118 112 103 90 92 115 128 126 122 115 117 113 101 96 95 91 87 87 84 81 76 65 57 59 57 47 41 41 40 36 36 36 34 31 30 31 34 31 24 26 27 15 10 19 21 22 37 33
247 247 227 101 254 271 116 94 48 17 98 177 247 334 37 78 96 101 101 101 107 107 104 103 105 101 89 81 79 80 82 86 85 81 77 73 64 55 53 51 42 34 32 29 29 30 28 26 27 25 25 27 22 16 21 19 4 360 3 357 354 17 28
307 249 262 211 253 344 55 94 100 66 98 146 35 52 65 73 83 92 94 92 92 92 93 96 97 92 87 84 81 78 76 78 82 80 76 72 67 61 57 53 42 31 25 20 20 23 22 23 24 22 22 20 11 8 11 5 358 357 355 352 350 349 5
194 186 252 229 142 58 62 83 94 79 66 56 62 78 85 87 90 93 95 96 92 89 92 96 94 97 105 102 93 87 84 81 80 78 74 71 69 68 65 57 44 32 23 15 16 20 21 21 19 17 18 14 7 5 0 356 358 357 351 351 353 349 351
94 60 314 57 102 96 86 83 83 75 58 44 52 64 73 88 100 102 99 100 97 93 96 98 94 98 104 98 89 89 89 86 83 82 82 79 72 68 65 57 46 35 21 17 25 26 22 19 16 15 13 7 2 358 353 350 353 353 348 347 347 345 343
18 262 271 303 119 121 109 96 88 80 59 45 56 70 72 77 89 98 100 101 98 91 87 91 94 98 100 97 93 89 87 87 88 88 89 85 77 69 61 53 37 9 10 34 36 28 22 22 20 15 10 3 356 354 353 350 345 342 344 342 337 336 334
318 208 341 342 340 105 129 127 121 104 81 66 69 76 79 77 75 80 88 94 95 90 83 85 90 90 92 98 102 100 98 101 102 101 97 92 85 76 69 61 25 8 31 46 41 32 31 29 21 14 8 2 357 350 344 341 339 337 339 337 331 328 326
329 342 10 8 356 342 14 121 123 129 120 102 96 90 87 88 79 67 74 87 99 107 105 96 94 94 92 93 97 98 98 105 111 108 101 95 93 84 66 58 42 35 43 45 40 39 37 29 20 13 5 359 360 358 351 341 334 328 330 335 335 333 327
261 288 1 21 11 289 289 341 103 129 123 112 116 116 107 107 105 88 76 77 86 98 101 95 93 100 108 110 106 104 113 126 119 107 99 96 97 83 56 34 38 55 57 51 45 41 34 25 18 11 3 360 7 12 11 7 0 351 349 349 345 343 344
177 151 82 40 62 221 266 309 60 136 135 131 139 144 140 136 135 128 119 109 98 103 110 114 116 120 131 133 132 139 153 143 122 110 111 108 92 81 62 23 52 65 63 57 48 38 31 25 18 10 6 8 17 20 18 18 20 20 18 14 6 1 7
220 206 158 162 282 261 271 309 339 143 153 153 153 154 150 141 136 135 134 132 131 123 123 144 164 169 162 161 162 160 145 127 111 109 116 105 85 79 86 72 69 65 59 57 51 39 32 27 18 14 15 15 18 21 21 20 22 23 23 22 20 15 11
227 250 244 228 314 292 286 319 335 330 149 144 145 145 141 136 139 149 156 149 149 148 142 163 176 164 140 151 152 137 124 120 114 106 98 88 73 64 75 75 72 63 54 54 51 40 36 33 20 16 20 18 17 20 21 19 19 18 16 15 14 11 5